Date String (YYYY-MM-DD hh:mm:ss) UTC,Instrument flags,absolute air pressure of the measurement (hPa),sample flow rate (lpm),inlet stack bypass flow (lpm),air temperature of the measurement (°C),ambient temperature measured by the external sensor (°C),aerosol sample conditioner tube jacket temperature (°C),OPC LED temperature (°C),internal box temperature (°C),relative humidity of the measurement (%),span deviation,mass concentration of particles derived from Lorenz-Mie calculation of OPC scattering (μg/m³),mass concentration of particles derived from Lorenz-Mie calculation of OPC scattering (μg/m³),mass concentration of particles derived from Lorenz-Mie calculation of OPC scattering (μg/m³)
DateTimeUTC,F1_M11,P_M11,Q1_M11,Q2_M11,T1_M11,T2_M11,T3_M11,T4_M11,T5_M11,U1_M11,ZSPAN_M11,X0_M11,X2_M11,X1_M11
2024-01-08 00:00:00,SystemResetWarning,0813.7,4.99,000.00,020.6,020.0,000.0,028.9,021.9,7.3,0000.0,0012.81,0003.30,0002.03
2024-01-08 00:01:00,SystemResetWarning,0813.7,4.99,000.00,020.6,019.9,000.0,028.9,021.9,7.3,0000.0,0011.55,0003.32,0002.02
2024-01-08 00:02:00,SystemResetWarning,0813.6,5.00,000.00,020.6,019.9,000.0,028.9,021.9,7.3,0000.0,0010.94,0003.29,0002.03
2024-01-08 00:03:00,SystemResetWarning,0813.6,5.00,000.00,020.6,019.9,000.0,028.9,021.9,7.3,0000.0,0010.64,0003.25,0002.03
2024-01-08 00:04:00,SystemResetWarning,0813.7,5.00,000.00,020.6,019.9,000.0,028.9,021.9,7.3,0000.0,0010.66,0003.26,0002.06
2024-01-08 00:05:00,SystemResetWarning,0813.7,5.00,000.00,020.6,019.8,000.0,028.9,021.9,7.3,0000.0,0010.53,0003.25,0002.06
2024-01-08 00:06:00,SystemResetWarning,0813.7,5.00,000.00,020.6,019.8,000.0,028.9,021.9,7.3,0000.0,0010.84,0003.27,0002.06
2024-01-08 00:07:00,SystemResetWarning,0813.7,5.00,000.00,020.6,019.8,000.0,028.9,021.9,7.3,0000.0,0012.03,0003.30,0002.08
2024-01-08 00:08:00,SystemResetWarning,0813.7,5.00,000.00,020.6,019.8,000.0,028.9,021.9,7.3,0000.0,0013.04,0003.33,0002.10
2024-01-08 00:09:00,SystemResetWarning,0813.7,5.01,000.00,020.6,019.8,000.0,028.9,021.9,7.3,0000.0,0012.66,0003.35,0002.10
2024-01-08 00:10:00,SystemResetWarning,0813.7,5.00,000.00,020.6,019.8,000.0,028.9,021.9,7.3,0000.0,0012.90,0003.37,0002.12
2024-01-08 00:11:00,SystemResetWarning,0813.7,5.00,000.00,020.6,019.7,000.0,028.9,021.9,7.3,0000.0,0013.33,0003.40,0002.11
2024-01-08 00:12:00,SystemResetWarning,0813.7,5.00,000.00,020.6,019.7,000.0,028.9,021.8,7.3,0000.0,0013.71,0003.40,0002.12
2024-01-08 00:13:00,SystemResetWarning,0813.8,5.00,000.00,020.6,019.8,000.0,028.9,021.9,7.3,0000.0,0013.76,0003.44,0002.12
2024-01-08 00:14:00,SystemResetWarning,0813.8,5.00,000.00,020.6,019.7,000.0,028.9,021.8,7.4,0000.0,0014.46,0003.46,0002.12
2024-01-08 00:15:00,SystemResetWarning,0813.8,5.00,000.00,020.6,019.7,000.0,028.9,021.8,7.4,0000.0,0014.90,0003.50,0002.11
2024-01-08 00:16:00,SystemResetWarning,0813.8,5.00,000.00,020.6,019.7,000.0,028.9,021.8,7.4,0000.0,0014.67,0003.49,0002.12
2024-01-08 00:17:00,SystemResetWarning,0813.9,5.00,000.00,020.6,019.7,000.0,028.9,021.8,7.4,0000.0,0014.30,0003.47,0002.12
2024-01-08 00:18:00,SystemResetWarning,0813.9,5.01,000.00,020.6,019.7,000.0,028.9,021.9,7.4,0000.0,0012.90,0003.46,0002.10
2024-01-08 00:19:00,SystemResetWarning,0814.0,5.00,000.00,020.6,019.7,000.0,028.9,021.8,7.4,0000.0,0011.44,0003.43,0002.07
2024-01-08 00:20:00,SystemResetWarning,0813.9,5.00,000.00,020.6,019.7,000.0,028.9,021.8,7.4,0000.0,0012.01,0003.42,0002.05
2024-01-08 00:21:00,SystemResetWarning,0813.9,5.00,000.00,020.6,019.7,000.0,028.9,021.8,7.4,0000.0,0012.02,0003.41,0002.02
2024-01-08 00:22:00,SystemResetWarning,0813.9,4.99,000.00,020.6,019.7,000.0,028.9,021.8,7.5,0000.0,0011.65,0003.40,0002.02
2024-01-08 00:23:00,SystemResetWarning,0813.9,5.00,000.00,020.5,019.7,000.0,028.9,021.8,7.5,0000.0,0011.75,0003.39,0002.01
2024-01-08 00:24:00,SystemResetWarning,0814.0,5.00,000.00,020.5,019.7,000.0,028.9,021.8,7.5,0000.0,0011.89,0003.33,0002.00
2024-01-08 00:25:00,SystemResetWarning,0814.0,5.00,000.00,020.5,019.6,000.0,028.9,021.7,7.5,0000.0,0011.64,0003.33,0001.99
2024-01-08 00:26:00,SystemResetWarning,0814.0,4.99,000.00,020.5,019.6,000.0,028.9,021.7,7.5,0000.0,0011.65,0003.32,0001.98
2024-01-08 00:27:00,SystemResetWarning,0814.0,5.00,000.00,020.5,019.6,000.0,028.9,021.8,7.5,0000.0,0012.10,0003.33,0001.96
2024-01-08 00:28:00,SystemResetWarning,0814.0,5.00,000.00,020.5,019.6,000.0,028.9,021.7,7.5,0000.0,0011.58,0003.31,0001.95
2024-01-08 00:29:00,SystemResetWarning,0814.0,5.00,000.00,020.5,019.6,000.0,028.9,021.7,7.5,0000.0,0011.11,0003.29,0001.95
2024-01-08 00:30:00,SystemResetWarning,0814.0,5.00,000.00,020.5,019.5,000.0,028.8,021.7,7.5,0000.0,0010.50,0003.23,0001.95
2024-01-08 00:31:00,SystemResetWarning,0814.0,5.00,000.00,020.5,019.5,000.0,028.8,021.7,7.5,0000.0,0010.15,0003.18,0001.95
2024-01-08 00:32:00,SystemResetWarning,0814.0,5.00,000.00,020.5,019.5,000.0,028.8,021.7,7.5,0000.0,0010.86,0003.18,0001.96
2024-01-08 00:33:00,SystemResetWarning,0814.0,5.00,000.00,020.5,019.5,000.0,028.8,021.7,7.5,0000.0,0011.05,0003.17,0001.95
2024-01-08 00:34:00,SystemResetWarning,0814.0,5.00,000.00,020.5,019.5,000.0,028.8,021.7,7.5,0000.0,0010.61,0003.16,0001.96
2024-01-08 00:35:00,SystemResetWarning,0814.0,5.00,000.00,020.5,019.4,000.0,028.8,021.7,7.5,0000.0,0010.74,0003.17,0001.95
2024-01-08 00:36:00,SystemResetWarning,0814.0,5.00,000.00,020.5,019.4,000.0,028.8,021.7,7.5,0000.0,0010.35,0003.16,0001.96
2024-01-08 00:37:00,SystemResetWarning,0814.0,5.00,000.00,020.5,019.4,000.0,028.8,021.7,7.5,0000.0,0010.04,0003.07,0001.96
2024-01-08 00:38:00,SystemResetWarning,0814.0,5.00,000.00,020.4,019.4,000.0,028.8,021.7,7.5,0000.0,0009.83,0003.02,0001.95
2024-01-08 00:39:00,SystemResetWarning,0814.0,5.00,000.00,020.4,019.4,000.0,028.8,021.7,7.6,0000.0,0010.45,0003.03,0001.95
2024-01-08 00:40:00,SystemResetWarning,0814.0,5.00,000.00,020.4,019.4,000.0,028.8,021.6,7.6,0000.0,0010.94,0003.08,0001.96
2024-01-08 00:41:00,SystemResetWarning,0814.1,5.00,000.00,020.4,019.4,000.0,028.8,021.7,7.6,0000.0,0011.39,0003.11,0001.96
2024-01-08 00:42:00,SystemResetWarning,0814.1,5.00,000.00,020.4,019.3,000.0,028.8,021.6,7.6,0000.0,0011.69,0003.15,0001.98
2024-01-08 00:43:00,SystemResetWarning,0814.1,5.00,000.00,020.4,019.3,000.0,028.8,021.6,7.6,0000.0,0010.65,0003.13,0001.98
2024-01-08 00:44:00,SystemResetWarning,0814.0,5.00,000.00,020.4,019.3,000.0,028.8,021.6,7.6,0000.0,0009.87,0003.08,0002.00
2024-01-08 00:45:00,SystemResetWarning,0814.1,5.00,000.00,020.4,019.3,000.0,028.7,021.6,7.6,0000.0,0010.20,0003.09,0002.00
2024-01-08 00:46:00,SystemResetWarning,0814.1,4.99,000.00,020.4,019.3,000.0,028.7,021.6,7.6,0000.0,0009.95,0003.12,0002.04
2024-01-08 00:47:00,SystemResetWarning,0814.1,5.00,000.00,020.4,019.3,000.0,028.7,021.6,7.6,0000.0,0010.67,0003.10,0002.05
2024-01-08 00:48:00,SystemResetWarning,0814.1,5.00,000.00,020.4,019.3,000.0,028.7,021.6,7.6,0000.0,0010.79,0003.12,0002.07
2024-01-08 00:49:00,SystemResetWarning,0814.1,4.99,000.00,020.3,019.3,000.0,028.7,021.6,7.6,0000.0,0010.17,0003.13,0002.08
2024-01-08 00:50:00,SystemResetWarning,0814.1,5.00,000.00,020.3,019.3,000.0,028.7,021.6,7.6,0000.0,0009.99,0003.14,0002.12
2024-01-08 00:51:00,SystemResetWarning,0814.1,5.00,000.00,020.3,019.3,000.0,028.7,021.6,7.6,0000.0,0010.64,0003.10,0002.13
2024-01-08 00:52:00,SystemResetWarning,0814.1,5.00,000.00,020.3,019.2,000.0,028.7,021.6,7.6,0000.0,0010.30,0003.08,0002.15
2024-01-08 00:53:00,SystemResetWarning,0814.1,5.00,000.00,020.3,019.2,000.0,028.7,021.5,7.6,0000.0,0009.77,0003.12,0002.15
2024-01-08 00:54:00,SystemResetWarning,0814.1,5.00,000.00,020.3,019.2,000.0,028.7,021.5,7.6,0000.0,0009.65,0003.13,0002.15
2024-01-08 00:55:00,SystemResetWarning,0814.2,5.00,000.00,020.3,019.2,000.0,028.7,021.5,7.6,0000.0,0009.82,0003.17,0002.14
2024-01-08 00:56:00,SystemResetWarning,0814.2,5.00,000.00,020.3,019.2,000.0,028.7,021.5,7.7,0000.0,0009.58,0003.17,0002.14
2024-01-08 00:57:00,SystemResetWarning,0814.2,5.00,000.00,020.3,019.2,000.0,028.7,021.5,7.7,0000.0,0010.01,0003.15,0002.10
2024-01-08 00:58:00,SystemResetWarning,0814.2,5.00,000.00,020.3,019.2,000.0,028.6,021.5,7.7,0000.0,0009.48,0003.17,0002.08
2024-01-08 00:59:00,SystemResetWarning,0814.2,5.00,000.00,020.3,019.2,000.0,028.6,021.5,7.7,0000.0,0009.59,0003.16,0002.06
